Probability
0 0 0 0 0 0 0 0 0 0 1 3 8 11 11 11 10 11 14 15 14 11 11 14 17 17 14 8 7 6 6 6 6 5 5 4 2 2 2 2 2 2 3 3
0 0 0 0 0 0 0 0 0 1 2 4 9 11 11 11 11 12 15 17 16 14 13 15 18 19 15 11 8 7 6 6 5 5 5 4 3 3 2 1 1 2 3 4
0 0 0 0 0 0 0 0 0 1 1 3 7 10 10 11 12 13 15 17 18 17 15 15 17 18 16 12 9 7 6 6 6 5 5 4 3 3 3 2 1 2 3 3
0 0 0 0 0 0 0 0 0 0 0 1 3 6 7 9 13 16 17 19 19 18 16 14 14 15 15 14 11 7 6 7 8 9 7 5 4 4 3 3 1 1 1 1
0 0 0 0 0 0 0 0 0 0 0 0 1 2 4 7 13 17 19 20 20 19 17 14 13 14 15 15 13 9 7 8 10 11 9 7 6 5 4 4 2 0 0 0
0 0 0 0 0 0 0 0 0 0 0 0 0 1 2 5 11 15 16 17 18 19 19 17 15 15 16 16 15 11 8 8 9 9 8 7 6 5 5 6 4 3 3 2
0 0 0 0 0 0 0 0 0 0 0 0 0 1 1 4 10 14 13 13 15 19 22 21 19 18 18 19 18 15 11 9 8 7 6 6 6 6 6 7 7 8 7 6
0 0 0 0 0 0 0 0 0 0 0 0 1 1 2 5 10 14 14 14 15 18 22 23 22 21 20 20 19 18 16 12 9 7 4 4 5 6 6 7 8 9 9 9
0 0 0 0 0 0 0 0 0 0 0 0 1 2 4 8 12 15 15 15 14 16 18 20 22 22 20 18 17 19 19 16 12 9 5 4 4 4 6 7 8 8 8 9
0 0 0 0 0 0 0 0 0 0 0 0 1 2 3 8 13 14 14 13 12 13 14 17 19 20 18 16 16 18 18 18 16 13 9 6 4 4 5 6 7 7 7 7
0 0 0 0 0 0 0 0 0 0 0 0 1 1 2 6 11 13 13 11 11 12 13 15 17 18 19 18 17 17 17 18 18 17 13 8 5 4 4 5 6 6 6 6
0 0 0 0 0 0 0 0 0 0 0 0 1 0 1 5 9 12 12 10 11 12 13 14 15 18 20 19 17 16 16 18 18 17 14 10 7 5 4 4 4 5 6 7
0 0 0 0 0 0 0 0 0 0 0 0 1 1 1 4 7 9 9 9 12 13 13 13 14 17 19 17 16 16 16 17 15 13 12 11 9 6 4 4 4 4 5 7
0 0 0 0 0 0 0 0 0 0 0 0 1 1 1 3 5 6 7 10 13 15 15 14 14 16 16 14 15 16 17 16 14 12 11 11 10 8 7 6 5 4 4 4
0 0 0 0 0 0 0 0 0 0 1 1 0 1 1 2 3 5 7 11 15 17 17 16 14 14 14 13 14 16 17 16 15 14 12 10 10 9 8 8 7 5 3 2
0 0 0 0 0 0 0 0 0 1 2 1 0 1 2 2 3 5 9 13 17 19 19 17 14 14 14 11 10 13 15 16 17 16 13 11 11 10 9 9 9 6 4 4
0 0 0 0 0 0 0 1 1 1 2 2 1 2 3 3 3 6 12 16 18 21 20 17 14 14 14 11 9 10 13 15 17 16 14 13 13 13 11 10 9 7 7 8
0 0 0 0 0 0 1 2 2 3 4 4 4 4 5 5 5 8 12 16 19 21 20 17 14 14 14 12 10 10 12 14 16 16 15 16 16 15 13 11 9 9 9 10
0 0 0 0 0 0 1 2 3 4 5 6 6 7 8 8 8 9 11 15 18 20 20 17 14 13 13 13 11 11 12 13 14 14 15 16 15 14 12 11 10 10 10 10
0 0 0 0 0 0 1 2 3 4 5 5 6 8 10 10 10 10 13 15 16 17 19 17 15 14 14 12 12 12 12 12 11 11 12 13 13 12 10 9 9 9 10 10
0 0 0 0 0 0 1 2 3 4 5 5 6 8 10 11 10 11 13 15 14 15 17 17 17 17 15 13 12 13 13 12 10 9 9 10 10 10 10 10 10 10 11 12
0 0 0 0 0 0 1 2 2 3 4 5 6 8 10 9 9 10 12 14 14 16 17 18 18 18 16 15 13 12 12 12 10 9 8 9 8 9 10 11 12 12 13 13
0 0 0 1 1 1 2 2 2 3 5 6 6 9 9 7 6 8 11 13 14 16 17 18 19 18 17 17 15 12 11 10 9 9 9 8 7 7 9 11 11 11 11 11
0 0 1 2 2 2 2 2 2 5 6 5 5 7 8 6 4 5 8 11 13 14 16 18 18 18 18 17 15 13 11 10 10 10 9 8 7 6 7 7 7 6 6 7
0 0 2 4 3 2 2 2 3 5 6 5 5 5 5 5 4 3 5 8 10 12 15 17 18 17 17 17 16 15 14 14 14 12 8 7 6 5 4 4 3 2 2 3
0 1 4 5 4 2 2 4 4 5 6 6 4 4 5 5 3 1 3 7 9 12 16 18 17 16 15 16 18 19 18 19 18 12 8 6 6 5 4 3 2 1 0 1
Wind_Speed
2 1 4 8 9 8 6 5 5 6 5 5 5 4 7 7 7 8 8 8 9 9 8 8 8 8 8 7 6 6 5 4 3 2 2 1 1 1 1 1 2 2 2 2
2 6 12 9 7 6 5 3 3 3 4 5 4 3 5 8 9 9 10 9 8 7 6 6 7 7 8 8 7 6 5 5 4 3 2 2 1 1 1 1 1 2 2 2
7 10 8 6 5 5 4 4 4 4 1 2 5 1 2 3 3 5 6 8 8 10 10 8 7 6 7 7 7 6 5 5 4 4 2 2 2 1 1 0 1 1 2 2
6 8 5 5 5 4 5 6 4 2 2 1 3 2 3 3 3 5 6 7 7 8 9 7 7 6 7 7 6 5 5 4 4 4 3 4 3 2 2 1 1 1 1 1
6 4 3 5 7 5 6 4 1 1 2 1 2 3 4 1 4 5 5 6 7 8 9 9 8 8 7 7 6 5 4 4 3 3 4 4 2 2 1 1 1 1 1 1
7 5 4 6 6 3 1 4 5 5 5 2 3 3 4 4 7 6 5 6 7 8 8 7 7 6 5 6 5 5 5 3 3 3 3 4 3 2 2 1 1 1 1 1
6 6 4 1 2 2 4 6 4 6 5 4 3 3 5 5 6 8 9 8 8 8 8 8 7 7 6 6 6 6 5 4 3 3 3 3 3 3 3 2 2 2 1 1
2 6 5 2 4 5 3 8 7 5 4 4 2 2 4 2 4 6 8 8 8 7 8 9 9 8 7 7 7 6 6 5 4 4 3 3 3 2 2 2 2 2 2 2
5 7 6 5 4 5 3 2 7 7 2 0 1 1 3 1 3 5 6 6 7 7 8 8 7 7 7 7 7 7 7 5 5 4 3 2 1 1 2 2 2 2 2 2
7 4 6 4 3 3 5 5 6 5 3 1 2 2 4 4 4 4 5 6 5 6 6 6 6 6 6 6 6 7 7 6 5 5 3 3 2 1 2 2 2 2 2 2
4 4 4 3 1 3 1 2 4 4 5 6 3 6 6 9 8 7 6 6 6 7 8 8 7 6 6 5 5 6 6 5 4 4 3 3 2 2 2 1 2 2 1 1
2 5 2 5 5 3 3 4 6 4 4 4 4 7 4 7 6 8 7 6 6 7 6 6 7 7 7 7 6 5 5 5 5 5 4 3 2 2 2 2 2 1 1 1
3 6 2 7 8 5 2 1 3 5 4 4 4 6 1 4 5 6 7 6 6 7 6 5 5 5 6 6 6 6 5 5 5 4 4 3 2 2 2 3 2 2 2 1
6 4 6 7 7 4 3 3 0 5 3 3 5 5 2 4 5 5 5 6 6 6 7 6 5 5 5 5 6 6 5 5 5 4 5 4 4 4 4 3 2 2 2 2
5 2 3 4 4 2 2 3 1 2 5 6 6 7 7 7 7 6 5 4 6 6 5 6 5 5 5 4 4 4 5 5 5 5 4 4 3 3 3 2 2 2 2 3
4 2 1 2 3 2 3 3 1 1 2 4 4 2 4 4 4 4 4 6 6 6 6 6 5 5 5 5 4 4 3 4 4 5 4 3 3 3 3 3 2 2 2 3
2 3 2 3 4 3 3 3 1 1 1 5 4 4 4 5 6 6 6 6 7 6 5 6 6 5 5 6 6 5 3 4 4 4 4 4 4 3 3 3 3 3 3 2
5 3 3 1 2 2 7 3 3 4 2 2 3 4 7 8 7 6 6 7 7 6 6 6 5 4 3 4 4 4 3 3 4 3 4 4 3 3 3 3 3 3 3 3
6 6 3 3 2 3 5 3 1 4 1 1 4 5 4 5 4 0 3 5 7 7 7 6 6 5 4 4 4 4 3 3 3 3 4 4 4 4 3 4 4 4 3 3
5 6 5 3 3 4 5 5 1 6 0 3 4 5 6 6 3 4 3 3 4 4 5 5 5 4 4 3 3 4 3 3 3 4 4 4 4 4 4 4 4 3 3 3
3 3 3 3 3 5 6 4 3 3 6 4 3 5 6 5 6 5 4 3 4 4 5 5 5 4 4 4 4 4 3 4 4 4 3 3 4 4 4 3 2 2 2 2
3 2 2 3 2 6 5 2 2 5 3 2 3 4 4 3 3 3 4 4 4 4 4 5 5 4 4 4 5 4 5 5 3 2 2 3 3 3 2 2 2 2 3 2
3 5 5 5 6 6 2 2 2 2 2 1 2 3 5 4 3 3 4 4 4 5 5 4 5 5 4 4 5 5 5 3 3 2 2 2 2 2 2 2 2 2 2 2
3 1 3 1 2 2 2 2 2 2 1 1 2 4 5 5 4 3 4 4 4 4 4 4 4 4 3 4 4 4 4 3 3 3 2 2 1 1 1 1 2 2 3 3
3 1 2 0 2 2 3 2 1 3 2 2 2 3 4 5 4 3 4 4 4 4 4 4 5 4 4 3 4 4 4 3 3 2 2 2 2 2 2 2 2 3 3 4
2 3 3 5 5 3 4 3 1 1 1 1 1 0 2 4 4 3 3 4 4 4 4 4 4 3 3 2 3 3 3 3 3 3 2 2 2 2 2 2 2 3 3 4
Wind_Direction
257 113 226 223 212 211 215 231 236 239 203 160 180 170 175 169 162 164 170 168 174 178 172 163 162 163 155 153 152 155 151 158 145 127 127 131 153 183 193 193 180 170 177 174
9 250 239 231 226 229 237 240 254 262 208 159 173 185 174 173 175 172 171 169 168 164 161 166 164 162 158 161 162 161 160 162 161 159 156 157 154 184 195 217 200 186 179 183
214 241 245 241 244 238 235 211 211 221 231 93 111 31 182 183 154 158 167 172 166 165 166 168 165 162 159 165 171 170 166 164 168 159 129 101 67 33 25 331 248 219 189 177
246 248 248 250 248 213 248 240 203 183 114 241 136 189 265 188 148 170 180 173 169 167 164 161 158 159 164 169 166 163 164 162 163 156 150 151 160 186 215 217 217 235 200 178
260 245 230 241 241 210 219 229 184 164 128 62 25 121 276 156 177 200 191 178 164 161 159 161 165 169 165 160 156 156 151 158 162 158 162 162 174 194 201 196 185 204 223 185
252 257 223 233 251 209 173 44 28 44 63 9 262 145 260 218 202 191 179 171 167 161 158 159 164 158 156 153 154 156 152 158 160 160 160 165 171 170 153 166 179 197 204 209
295 288 276 215 327 340 86 84 33 5 5 263 265 133 235 232 188 177 175 173 167 164 159 154 159 161 163 162 164 157 153 163 170 164 170 174 175 169 171 180 185 180 183 197
233 283 270 230 194 208 198 139 154 188 225 270 331 191 255 221 169 161 162 159 152 156 160 165 171 171 171 173 172 162 160 173 179 178 184 185 177 175 186 192 177 183 196 206
186 249 264 245 226 169 192 188 166 143 171 101 304 301 324 47 108 122 133 138 153 160 163 169 172 170 174 176 177 176 171 174 175 178 172 165 168 178 197 192 171 181 201 201
168 224 275 289 3 342 168 157 94 109 147 219 270 249 223 205 184 153 141 153 157 153 159 165 172 174 175 175 175 173 173 178 180 176 181 179 179 197 216 181 191 203 212 200
155 165 288 338 237 248 4 98 114 125 152 158 211 257 223 191 185 168 171 167 162 159 164 167 169 166 164 164 168 173 174 172 173 174 179 178 182 202 202 193 208 207 210 198
145 130 236 262 255 196 161 183 151 155 224 166 169 254 246 179 171 163 165 168 160 157 153 157 162 160 160 164 166 173 179 176 182 180 174 181 185 188 200 217 223 199 198 203
99 102 53 339 336 352 16 262 164 142 130 156 165 251 249 156 156 161 162 166 159 153 142 138 143 153 164 169 168 175 179 177 176 166 168 180 179 186 217 222 223 212 197 201
107 109 155 196 229 244 280 295 214 125 142 188 200 200 219 177 168 172 170 170 165 157 150 147 150 156 167 174 174 175 181 174 167 161 169 185 193 195 213 218 215 212 209 212
96 140 204 220 234 239 277 298 258 161 181 180 205 190 207 191 173 172 161 148 146 149 152 156 159 165 168 166 168 173 177 174 166 163 175 195 204 202 201 203 212 210 220 237
79 143 8 319 304 349 358 343 27 59 108 130 131 217 219 169 132 134 144 140 145 157 161 159 166 163 164 162 162 163 168 172 164 169 187 192 191 202 205 205 208 211 230 235
82 108 93 276 290 24 328 285 129 96 102 142 170 208 158 141 157 170 168 161 164 170 169 170 171 170 170 166 160 162 168 162 162 175 184 184 187 204 212 208 208 223 230 226
140 117 136 189 28 228 246 244 138 112 70 105 139 156 160 169 173 173 171 170 176 175 176 180 176 167 167 167 162 159 150 149 161 177 188 188 186 207 222 215 219 225 225 219
146 137 129 129 173 265 298 309 161 136 20 35 131 142 145 136 104 180 202 174 181 183 177 176 176 168 157 164 163 144 144 152 161 181 195 198 196 207 220 223 225 223 219 229
66 99 123 135 156 217 251 286 220 106 13 295 134 147 146 122 128 240 222 174 169 172 165 161 159 147 152 162 155 144 161 169 191 202 205 205 202 208 218 226 222 218 216 228
33 50 126 159 189 246 264 288 62 118 231 243 175 159 154 167 194 211 186 169 167 166 159 151 148 160 175 173 157 158 174 199 213 211 209 210 212 214 212 214 208 199 196 206
169 158 181 146 173 249 291 31 132 216 224 176 163 159 153 159 161 167 160 160 159 150 148 153 156 172 184 178 168 178 204 214 208 202 207 219 222 221 212 194 210 192 182 187
169 183 177 176 203 236 266 194 210 160 132 156 154 160 144 137 156 172 175 167 168 166 164 166 166 170 188 186 177 193 222 209 194 198 216 230 225 226 205 190 198 204 200 198
309 83 105 85 264 279 354 21 31 35 148 157 156 157 148 155 167 178 182 177 173 173 169 165 159 170 202 206 194 208 215 199 186 200 216 207 194 222 223 206 200 209 209 205
269 28 80 232 276 2 356 346 347 3 35 86 92 137 149 148 165 180 189 189 189 181 176 172 174 185 205 209 208 208 207 188 187 203 214 208 200 201 216 226 224 224 227 209
251 184 172 220 229 192 237 253 275 65 52 106 91 50 152 158 175 186 188 190 189 184 179 176 180 186 204 210 231 232 212 194 191 206 214 211 208 207 208 225 273 270 244 245